Orbital Elements at Epoch 2459000.5 (2020-May-31.0) TDB
Reference: JPL 16 (heliocentric ecliptic J2000)
Element | Value | Uncertainty (1-sigma) | Units |
e | .01350673128057074 | 6.0586e-08 | |
a | 3.100347142702316 | 4.3521e-08 | au |
q | 3.058471586969351 | 1.8047e-07 | au |
i | 9.056469775695668 | 5.4137e-06 | deg |
node | 237.8964569945335 | 4.9346e-05 | deg |
peri | 42.70918525926637 | 0.00036639 | deg |
M | 227.5189583584957 | 0.00036896 | deg |
tp | 2459734.278776620698 (2022-Jun-03.77877662) | 0.0020509 | TDB |
period | 1993.948389221404 5.46 | 4.1985e-05 1.149e-07 | d yr |
n | .1805462979613894 | 3.8016e-09 | deg/d |
Q | 3.142222698435282 | 4.4108e-08 | au |
|
| | Orbit Determination Parameters
Additional Information
|